A/2020 F7

Japanese version
Home page
Updated on January 6, 2021

---------------------------------------------------------------------

* Profile

Discovery Date March 22, 2020
Magnitude 20.2 mag
Discoverer Mt. Lemmon Survey

* Pictures

* Orbital Elements

Epoch 2021 Nov. 2.0 TT = JDT 2459520.5
T 2021 Nov. 14.00608 TT                                 Rudenko
q   5.3320448            (2000.0)            P               Q
z  +0.0014373      Peri.  227.97045     -0.49515854     +0.61291979
 +/-0.0000035      Node   321.88673     +0.71087137     -0.12163222
e   0.9923361      Incl.   93.95345     -0.49947964     -0.78072718
H   12.0
From 112 observations 2020 Jan. 4-Oct. 13, mean residual 0".5.

* Magnitudes Graph

        H = 11.5  G = 0.15

---------------------------------------------------------------------

The orbital elements are published on M.P.E.C. 2020-U96.
The magnitudes graphs are made with Comet for Windows.

---------------------------------------------------------------------

Copyright(C) Seiichi Yoshida (comet@aerith.net). All rights reserved.